Stations météo

Publicité
Chassiron, France (7314): Température de l'air & dewpoint: 09.11.2019 16:00:00 - 15.11.2019 16:00:00 (CET)Chassiron, France (7314): Vitesse du vent & gusts: 09.11.2019 16:00:00 - 15.11.2019 16:00:00 (CET)Chassiron, France (7314): Direction du vent: 09.11.2019 16:00:00 - 15.11.2019 16:00:00 (CET)Chassiron, France (7314): reduced air pressure: 09.11.2019 16:00:00 - 15.11.2019 16:00:00 (CET)Chassiron, France (7314): visibility: 09.11.2019 16:00:00 - 15.11.2019 16:00:00 (CET)Chassiron, France (7314): Quantités de précipitations: 09.11.2019 16:00:00 - 15.11.2019 16:00:00 (CET)
Date & Time tt [°C] td [°C] ff [km/h] ff [knt] fx [km/h] fx [knt] dd ppp [hPa] vv [km] rr [mm]
15.11.2019 16:00:00 8,5 3,1 24 13 34 18 NNW 1003,0 10 0,0
15.11.2019 15:00:00 8,0 4,2 18 10 28 15 NNW 1002,6 - 0,0
15.11.2019 14:00:00 7,4 4,9 16 9 33 18 N 1002,5 - 0,0
15.11.2019 13:00:00 7,4 5,5 20 11 31 17 N 1002,5 10 0,0
15.11.2019 12:00:00 6,5 5,0 24 13 36 19 NNE 1002,5 - 0,0
15.11.2019 11:00:00 6,1 4,9 18 10 32 17 N 1002,4 - 0,0
15.11.2019 10:00:00 6,2 5,2 24 13 32 18 NNE 1001,9 8 0,0
15.11.2019 09:00:00 6,0 5,0 24 13 33 18 NNE 1001,4 - 0,0
15.11.2019 08:00:00 6,2 4,8 23 12 34 18 NNE 1000,4 - 0,0
15.11.2019 07:00:00 6,9 5,0 18 10 36 19 NE 999,5 20 0,0
15.11.2019 06:00:00 6,7 4,7 25 14 40 22 NE 998,8 - 0,0
15.11.2019 05:00:00 6,8 4,9 20 11 34 18 ENE 998,2 - 0,0
15.11.2019 04:00:00 6,6 5,1 12 6 32 17 ENE 998,2 17 0,0
15.11.2019 03:00:00 7,2 6,1 16 8 26 14 NE 998,2 - 0,0
15.11.2019 02:00:00 4,7 3,4 6 4 13 7 SE 998,1 - 0,0
15.11.2019 01:00:00 5,3 3,9 9 5 12 6 SE 998,4 16 0,0
15.11.2019 00:00:00 4,9 3,7 8 4 13 7 SE 998,1 - 0,0
14.11.2019 23:00:00 5,3 3,6 9 5 14 7 SE 998,2 - 0,0
14.11.2019 22:00:00 6,1 3,6 9 5 13 7 SE 998,3 15 0,0
14.11.2019 21:00:00 7,5 3,4 9 5 16 9 NE 998,1 - 0,0
14.11.2019 20:00:00 7,8 4,2 10 5 20 11 NNE 998,2 - 0,0
14.11.2019 19:00:00 8,4 4,0 9 5 19 10 N 998,0 20 0,0
14.11.2019 18:00:00 8,4 4,4 10 5 19 10 NNW 997,6 - 0,0
14.11.2019 17:00:00 8,2 4,0 6 3 16 9 NW 996,9 - 0,0
14.11.2019 16:00:00 8,1 4,5 3 1 10 6 NNW 996,6 15 0,0
14.11.2019 15:00:00 7,6 4,0 9 5 21 12 WSW 996,3 - 0,0
14.11.2019 14:00:00 7,8 4,0 16 9 25 13 N 996,8 - 0,0
14.11.2019 13:00:00 7,9 5,9 6 3 18 10 SE 996,8 - 0,0
14.11.2019 12:00:00 7,1 5,7 9 5 23 12 ESE 997,0 - 0,0
14.11.2019 11:00:00 6,7 5,5 13 7 23 12 SE 997,5 - 0,0
14.11.2019 10:00:00 6,4 5,3 14 7 23 12 ESE 997,1 - 0,0
14.11.2019 09:00:00 6,4 5,0 10 5 29 15 SSE 997,6 - 0,0
14.11.2019 08:00:00 7,2 4,8 13 7 38 21 ESE 997,4 - 0,0
14.11.2019 07:00:00 9,4 5,0 29 16 61 33 NW 996,5 12 0,0
14.11.2019 06:00:00 9,9 5,5 45 25 69 38 W 996,0 - 0,0
14.11.2019 05:00:00 10,4 4,3 36 20 54 29 W 995,8 - 0,0
14.11.2019 04:00:00 9,7 3,6 41 22 66 36 W 996,5 15 0,0
14.11.2019 03:00:00 9,7 5,1 36 19 64 35 WNW 996,7 - 0,0
14.11.2019 02:00:00 9,8 4,8 39 21 76 41 WNW 996,9 - 0,2
14.11.2019 01:00:00 10,9 4,6 41 22 58 31 W 996,8 15 0,0
14.11.2019 00:00:00 10,8 5,5 39 21 61 33 W 997,3 - 0,0
13.11.2019 23:00:00 9,5 7,4 29 16 48 26 W 998,1 - 0,0
13.11.2019 22:00:00 9,1 7,0 40 21 90 49 WNW 998,5 8 0,0
13.11.2019 21:00:00 12,6 9,6 50 27 79 43 SSW 998,0 - 0,0
13.11.2019 20:00:00 13,0 8,5 46 25 79 43 SSW 1000,4 - 0,0
13.11.2019 19:00:00 12,7 8,4 44 24 77 41 SW 1002,3 10 0,0
13.11.2019 18:00:00 11,7 7,2 30 16 69 37 SW 1004,4 - 0,0
13.11.2019 17:00:00 12,3 6,6 36 19 53 29 SW 1005,7 - 0,0
13.11.2019 16:00:00 12,3 6,6 31 17 46 25 SW 1006,4 - 0,0
13.11.2019 15:00:00 12,2 6,5 23 12 39 21 SW 1007,4 - 0,0
13.11.2019 14:00:00 10,9 6,8 24 13 48 26 W 1008,6 - 0,0
13.11.2019 13:00:00 10,1 7,2 18 10 37 20 SSW 1009,6 12 0,0
13.11.2019 12:00:00 11,2 5,5 18 10 27 14 S 1010,2 - 0,6
13.11.2019 11:00:00 10,4 5,6 10 5 18 10 S 1010,7 - 0,0
13.11.2019 10:00:00 10,6 5,1 6 3 17 9 NNE 1010,1 15 0,0
13.11.2019 09:00:00 10,0 3,5 13 7 27 14 N 1010,0 - 0,0
13.11.2019 08:00:00 9,7 4,3 13 7 22 12 N 1009,3 - 0,0
13.11.2019 07:00:00 9,9 3,6 16 9 23 12 NNW 1009,0 20 0,0
13.11.2019 06:00:00 9,6 3,6 12 7 23 12 N 1008,4 - 0,0
13.11.2019 05:00:00 9,4 3,8 17 9 29 16 N 1008,2 - 0,0
13.11.2019 04:00:00 9,1 5,1 20 11 28 15 N 1008,0 15 0,0
13.11.2019 03:00:00 9,2 5,0 19 10 28 15 N 1007,7 - 0,0
13.11.2019 02:00:00 9,3 5,3 21 12 34 18 N 1007,8 - 0,0
13.11.2019 01:00:00 9,5 4,5 27 15 39 21 N 1007,4 15 0,0
13.11.2019 00:00:00 9,7 5,1 29 15 39 21 N 1007,2 - 0,0
12.11.2019 23:00:00 10,3 5,9 24 13 35 19 N 1007,7 - 0,0
12.11.2019 22:00:00 10,3 5,9 19 10 39 21 N 1007,7 15 0,0
12.11.2019 21:00:00 10,3 7,7 31 17 46 25 N 1007,7 - 0,0
12.11.2019 20:00:00 10,4 7,5 15 8 35 19 N 1008,0 - 0,0
12.11.2019 19:00:00 11,0 7,9 20 11 34 18 N 1007,8 20 0,0
12.11.2019 18:00:00 11,0 7,7 31 17 43 23 NNW 1008,0 - 0,0
12.11.2019 17:00:00 11,3 8,5 23 12 40 22 NW 1008,3 - 0,0
12.11.2019 16:00:00 11,4 8,3 21 12 49 26 NW 1008,6 - 0,0
12.11.2019 15:00:00 13,1 7,3 26 14 42 23 WNW 1008,8 - 0,0
12.11.2019 14:00:00 12,5 7,8 28 15 41 22 NW 1009,6 - 0,0
12.11.2019 13:00:00 12,5 8,0 25 13 48 26 NW 1010,2 12 0,0
12.11.2019 12:00:00 12,9 8,6 30 16 48 26 WNW 1010,7 - 0,0
12.11.2019 11:00:00 12,4 8,5 16 9 44 24 NNW 1011,1 - 0,0
12.11.2019 10:00:00 11,8 7,9 35 19 47 26 NNW 1011,2 12 0,0
12.11.2019 09:00:00 11,7 7,8 25 13 50 27 WNW 1011,1 - 0,0
12.11.2019 08:00:00 12,6 8,1 30 16 45 24 WNW 1010,9 - 0,0
12.11.2019 07:00:00 11,8 8,5 34 18 75 41 NW 1011,3 12 0,0
12.11.2019 06:00:00 11,8 8,6 30 16 64 35 WNW 1011,5 - 0,0
12.11.2019 05:00:00 12,8 9,1 35 19 54 29 W 1011,8 - 0,0
12.11.2019 04:00:00 10,8 8,9 37 20 57 31 WNW 1012,6 12 0,0
12.11.2019 03:00:00 11,4 8,8 29 15 61 33 W 1012,8 - 0,0
12.11.2019 02:00:00 12,8 9,1 33 18 54 29 WNW 1013,2 - 0,0
12.11.2019 01:00:00 10,4 8,2 32 18 55 30 NNW 1014,3 12 0,0
12.11.2019 00:00:00 12,3 7,2 30 16 50 27 W 1014,2 - 0,0
11.11.2019 23:00:00 11,9 7,6 34 18 70 38 WNW 1014,6 - 0,0
11.11.2019 22:00:00 12,1 7,2 36 19 52 28 W 1014,7 - 0,0
11.11.2019 21:00:00 12,3 7,0 29 16 59 32 WNW 1014,6 - 0,0
11.11.2019 20:00:00 11,6 6,5 36 19 65 35 WNW 1014,6 - 0,0
11.11.2019 19:00:00 12,4 6,4 39 21 66 35 WNW 1014,5 - 0,0
11.11.2019 18:00:00 12,3 5,5 39 21 56 30 NW 1013,9 - 0,0
11.11.2019 17:00:00 12,1 5,3 40 22 58 31 NW 1013,5 - -
11.11.2019 16:00:00 12,2 5,4 40 22 60 32 NW 1013,2 - 0,0
11.11.2019 15:00:00 12,2 5,4 46 25 70 38 NW 1012,6 - 0,0
11.11.2019 14:00:00 12,3 5,9 54 29 71 38 NW 1012,1 - 0,0
11.11.2019 13:00:00 11,6 6,3 44 24 69 38 NNW 1011,7 3,0 0,0
11.11.2019 12:00:00 11,9 6,4 48 26 73 40 NNW 1011,5 - 0,0
11.11.2019 11:00:00 12,1 8,4 46 25 65 35 NW 1010,9 - 0,0
11.11.2019 10:00:00 11,5 10,7 29 16 39 21 SSW 1010,6 3,0 0,0
11.11.2019 09:00:00 11,0 9,4 22 12 41 22 SW 1011,3 - 0,0
11.11.2019 08:00:00 12,1 7,0 21 12 45 25 WSW 1011,2 - 0,0
11.11.2019 07:00:00 13,1 8,0 25 14 36 20 WSW 1011,2 12 0,0
11.11.2019 06:00:00 12,8 7,5 28 15 41 22 W 1012,0 - 0,0
11.11.2019 05:00:00 12,0 9,2 17 9 41 22 SW 1012,4 - 0,0
11.11.2019 04:00:00 12,4 7,7 25 14 38 20 WSW 1012,6 12 0,0
11.11.2019 03:00:00 12,6 6,2 22 12 31 17 W 1014,0 - 0,0
11.11.2019 02:00:00 9,2 6,5 10 5 14 8 ESE 1014,2 - 0,0
11.11.2019 01:00:00 8,4 5,9 8 4 16 9 SE 1015,2 12 0,0
11.11.2019 00:00:00 8,4 5,5 11 6 16 8 SSE 1014,7 - 0,0
10.11.2019 23:00:00 8,2 5,5 7 4 12 6 SE 1015,5 - 0,0
10.11.2019 22:00:00 8,9 5,3 5 3 19 10 E 1014,8 12 0,0
10.11.2019 21:00:00 10,3 6,4 11 6 23 12 NE 1014,5 - 0,0
10.11.2019 20:00:00 10,7 6,4 14 8 25 14 NNE 1015,0 - 0,0
10.11.2019 19:00:00 11,0 5,7 14 8 27 15 N 1014,7 12 0,0
10.11.2019 18:00:00 11,3 5,8 17 9 26 14 NNW 1014,0 - 0,0
10.11.2019 17:00:00 11,5 5,4 14 8 34 18 NNW 1013,2 - 0,0
10.11.2019 16:00:00 11,7 5,8 22 12 32 17 NW 1012,5 12 0,0
10.11.2019 15:00:00 11,8 6,3 22 12 36 19 NNW 1012,0 - 0,0
10.11.2019 14:00:00 11,7 6,4 25 13 39 21 NW 1011,7 - 0,0
10.11.2019 13:00:00 11,8 6,3 26 14 43 23 NW 1011,6 12 0,0
10.11.2019 12:00:00 11,6 6,9 22 12 41 22 NW 1011,9 - 0,0
10.11.2019 11:00:00 9,6 5,2 23 12 50 27 NNW 1012,0 - 0,0
10.11.2019 10:00:00 11,1 5,8 22 12 29 16 N 1011,4 - 0,0
10.11.2019 09:00:00 10,8 5,7 13 7 37 20 NNW 1011,0 - 0,0
10.11.2019 08:00:00 10,5 6,6 23 13 52 28 NNW 1010,5 - 0,2
10.11.2019 07:00:00 11,3 6,0 21 11 35 19 N 1010,0 12 0,0
10.11.2019 06:00:00 11,4 6,5 26 14 54 29 N 1009,9 - 0,0
10.11.2019 05:00:00 12,0 7,1 28 15 60 33 NNW 1009,9 - 0,0
10.11.2019 04:00:00 11,9 6,8 36 19 54 29 NNW 1009,8 12 0,0
10.11.2019 03:00:00 12,0 6,1 38 21 63 34 NW 1009,8 - 0,0
10.11.2019 02:00:00 12,4 5,8 45 25 70 38 NW 1009,9 - 0,0
10.11.2019 01:00:00 12,3 5,5 44 24 66 35 NW 1009,9 12 0,0
10.11.2019 00:00:00 11,6 5,9 47 26 72 39 NW 1009,6 - 0,0
09.11.2019 23:00:00 11,2 6,3 49 27 82 45 NW 1009,3 - 0,0
09.11.2019 22:00:00 11,4 6,7 56 30 81 44 NW 1008,6 12 0,0
09.11.2019 21:00:00 10,4 6,7 35 19 79 43 NW 1008,4 - 0,0
09.11.2019 20:00:00 11,7 6,2 47 26 81 44 NW 1007,8 - 0,0
09.11.2019 19:00:00 10,7 7,2 40 22 88 48 NW 1007,3 10 0,0
09.11.2019 18:00:00 12,0 8,5 39 21 80 43 WNW 1006,2 - 0,0
09.11.2019 17:00:00 11,6 10,5 43 23 117 63 NW 1005,7 - 2,7
09.11.2019 16:00:00 13,2 12,1 51 28 75 41 SSW 1004,1 - 3,0

tt = Température de l'air
td = dewpoint
ff = Vitesse du vent
fx = gusts
dd = Direction du vent
ppp = reduced air pressure
vv = visibility
rr = Quantités de précipitations

stations d'obs. à proximité